Simultaneous Nadir Overpasses (SNOs) Predictions

Prediction of SNOs between AURA and NPP Satellite Orbit:

Table of predicted SNOs for the next 14.0 days since TLE Epoch: 9/11/2021
Index Date (AURA) Time (AURA) Lat,Lon (AURA) SZA (AURA ) Date (NPP) Time (NPP) Lat,Lon (NPP) SZA (NPP ) Distance(km) Time Diff (sec)
1 09/11/2021 10:35:35 79.28, -83.55 88.25 09/11/2021 10:34:43 79.28, -83.49 88.28 1.40 52
2 09/11/2021 11:24:57 -79.48, 85.43 92.03 09/11/2021 11:25:23 -79.47, 85.31 92.02 2.65 26
3 09/14/2021 02:52:06 79.26, 32.22 89.24 09/14/2021 02:51:40 79.26, 32.09 89.28 2.82 26
4 09/14/2021 03:41:25 -79.58,-158.00 91.21 09/14/2021 03:42:16 -79.58,-158.02 91.24 0.32 51
5 09/16/2021 19:08:32 79.43, 149.23 89.97 09/16/2021 19:08:31 79.43, 149.23 89.97 0.20 1
6 09/16/2021 19:56:13 -81.82, -5.30 95.77 09/16/2021 19:57:26 -81.29, -5.00 96.08 59.14 73
7 09/19/2021 10:35:41 -79.26, 96.33 88.83 09/19/2021 10:34:48 -79.26, 96.37 88.80 0.85 53
8 09/19/2021 11:25:02 79.44, -94.82 90.93 09/19/2021 11:25:27 79.44, -94.96 90.94 2.87 25
9 09/22/2021 02:52:09 -79.31,-147.50 87.92 09/22/2021 02:51:42 -79.30,-147.56 87.89 1.38 27
10 09/22/2021 03:41:27 79.60, 22.14 91.69 09/22/2021 03:42:17 79.60, 22.20 91.64 1.30 50
11 09/24/2021 19:08:38 -79.35, -31.37 86.99 09/24/2021 19:08:37 -79.34, -31.50 86.96 2.93 1



Historial Predications of SNOs between AURA and NPP
